TimeCDT,TemperatureF,Dew PointF,Humidity,Sea Level PressureIn,VisibilityMPH,Wind Direction,Wind SpeedMPH,Gust SpeedMPH,PrecipitationIn,Events,Conditions,WindDirDegrees,DateUTC
12:15 AM,21.2,3.2,46,29.89,10.0,WNW,6.9,-,N/A,,Clear,300,2013-03-20 05:15:00
12:35 AM,21.2,3.2,46,29.89,10.0,WNW,8.1,-,N/A,,Clear,300,2013-03-20 05:35:00
12:55 AM,19.4,3.2,49,29.89,10.0,WNW,8.1,-,N/A,,Clear,290,2013-03-20 05:55:00
1:15 AM,19.4,3.2,49,29.89,10.0,West,5.8,-,N/A,,Clear,280,2013-03-20 06:15:00
1:35 AM,19.4,3.2,49,29.89,10.0,WNW,5.8,-,N/A,,Clear,290,2013-03-20 06:35:00
1:55 AM,19.4,3.2,49,29.90,10.0,WNW,5.8,-,N/A,,Clear,290,2013-03-20 06:55:00
2:15 AM,17.6,3.2,53,29.90,10.0,WNW,5.8,-,N/A,,Clear,290,2013-03-20 07:15:00
2:35 AM,17.6,3.2,53,29.90,10.0,West,4.6,-,N/A,,Clear,270,2013-03-20 07:35:00
2:55 AM,17.6,3.2,53,29.90,10.0,West,3.5,-,N/A,,Clear,280,2013-03-20 07:55:00
3:15 AM,15.8,3.2,58,29.90,10.0,West,6.9,-,N/A,,Clear,270,2013-03-20 08:15:00
3:35 AM,15.8,3.2,58,29.90,10.0,West,6.9,-,N/A,,Clear,280,2013-03-20 08:35:00
3:55 AM,15.8,3.2,58,29.90,10.0,West,5.8,-,N/A,,Clear,280,2013-03-20 08:55:00
4:15 AM,15.8,3.2,58,29.90,10.0,West,5.8,-,N/A,,Clear,270,2013-03-20 09:15:00
4:35 AM,14.0,1.4,57,29.90,10.0,West,5.8,-,N/A,,Clear,270,2013-03-20 09:35:00
4:55 AM,14.0,3.2,62,29.89,10.0,West,5.8,-,N/A,,Clear,280,2013-03-20 09:55:00
5:15 AM,14.0,3.2,62,29.90,10.0,WNW,9.2,-,N/A,,Clear,290,2013-03-20 10:15:00
5:35 AM,14.0,1.4,57,29.90,10.0,West,9.2,16.1,N/A,,Clear,280,2013-03-20 10:35:00
5:55 AM,12.2,3.2,67,29.90,10.0,West,9.2,-,N/A,,Clear,280,2013-03-20 10:55:00
6:15 AM,12.2,1.4,62,29.91,10.0,West,9.2,-,N/A,,Clear,280,2013-03-20 11:15:00
6:35 AM,12.2,-0.4,57,29.91,10.0,West,6.9,-,N/A,,Clear,280,2013-03-20 11:35:00
6:55 AM,12.2,1.4,62,29.92,10.0,WNW,9.2,-,N/A,,Clear,290,2013-03-20 11:55:00
7:15 AM,10.4,1.4,67,29.92,10.0,WNW,9.2,-,N/A,,Clear,290,2013-03-20 12:15:00
7:35 AM,10.4,1.4,67,29.92,10.0,West,6.9,-,N/A,,Clear,280,2013-03-20 12:35:00
7:55 AM,12.2,1.4,62,29.92,10.0,West,9.2,-,N/A,,Clear,280,2013-03-20 12:55:00
8:15 AM,12.2,1.4,62,29.93,10.0,WNW,10.4,18.4,N/A,,Clear,290,2013-03-20 13:15:00
8:35 AM,12.2,1.4,62,29.93,10.0,WNW,8.1,18.4,N/A,,Clear,300,2013-03-20 13:35:00
8:55 AM,12.2,1.4,62,29.92,10.0,WNW,11.5,17.3,N/A,,Clear,300,2013-03-20 13:55:00
9:15 AM,14.0,1.4,57,29.92,10.0,NW,8.1,16.1,N/A,,Clear,310,2013-03-20 14:15:00
9:35 AM,15.8,1.4,53,29.92,10.0,NW,11.5,-,N/A,,Clear,310,2013-03-20 14:35:00
9:55 AM,15.8,1.4,53,29.92,10.0,NNW,12.7,19.6,N/A,,Clear,330,2013-03-20 14:55:00
10:15 AM,15.8,3.2,58,29.92,10.0,WNW,10.4,17.3,N/A,,Scattered Clouds,290,2013-03-20 15:15:00
10:55 AM,19.4,3.2,49,29.92,10.0,WNW,9.2,-,N/A,,Clear,290,2013-03-20 15:55:00
11:15 AM,19.4,3.2,49,29.92,10.0,NNW,15.0,18.4,N/A,,Mostly Cloudy,340,2013-03-20 16:15:00
11:35 AM,19.4,5.0,54,29.92,10.0,NNW,8.1,-,N/A,,Mostly Cloudy,330,2013-03-20 16:35:00
11:55 AM,19.4,3.2,49,29.92,10.0,NNW,15.0,23.0,N/A,,Overcast,330,2013-03-20 16:55:00
12:15 PM,19.4,3.2,49,29.92,10.0,NW,10.4,21.9,N/A,,Overcast,320,2013-03-20 17:15:00
12:35 PM,21.2,3.2,46,29.92,10.0,WNW,11.5,19.6,N/A,,Overcast,300,2013-03-20 17:35:00
12:55 PM,21.2,3.2,46,29.92,10.0,NNW,10.4,17.3,N/A,,Overcast,330,2013-03-20 17:55:00
1:15 PM,21.2,3.2,46,29.92,10.0,NNW,12.7,18.4,N/A,,Overcast,340,2013-03-20 18:15:00
1:35 PM,21.2,5.0,50,29.91,10.0,NW,10.4,19.6,N/A,,Overcast,320,2013-03-20 18:35:00
1:55 PM,23.0,6.8,50,29.91,10.0,NNW,8.1,18.4,N/A,,Overcast,330,2013-03-20 18:55:00
2:15 PM,23.0,3.2,43,29.91,10.0,NW,8.1,-,N/A,,Overcast,310,2013-03-20 19:15:00
2:35 PM,23.0,6.8,50,29.90,10.0,NNW,6.9,16.1,N/A,,Overcast,330,2013-03-20 19:35:00
2:55 PM,23.0,6.8,50,29.90,10.0,NNW,11.5,-,N/A,,Overcast,340,2013-03-20 19:55:00
3:15 PM,23.0,8.6,54,29.90,10.0,NNW,15.0,20.7,N/A,,Overcast,330,2013-03-20 20:15:00
3:35 PM,23.0,8.6,54,29.91,10.0,NW,9.2,16.1,N/A,,Overcast,320,2013-03-20 20:35:00
3:55 PM,23.0,6.8,50,29.91,9.0,NW,10.4,18.4,N/A,,Overcast,310,2013-03-20 20:55:00
4:15 PM,24.8,8.6,50,29.91,10.0,NW,6.9,-,N/A,,Overcast,310,2013-03-20 21:15:00
4:35 PM,24.8,8.6,50,29.91,10.0,NNW,10.4,19.6,N/A,,Overcast,340,2013-03-20 21:35:00
4:55 PM,24.8,10.4,54,29.91,10.0,NNW,11.5,16.1,N/A,,Overcast,340,2013-03-20 21:55:00
5:15 PM,24.8,8.6,50,29.92,10.0,NNW,8.1,17.3,N/A,,Overcast,330,2013-03-20 22:15:00
5:35 PM,24.8,8.6,50,29.92,10.0,NW,10.4,-,N/A,,Overcast,310,2013-03-20 22:35:00
5:55 PM,23.0,8.6,54,29.93,10.0,NW,10.4,-,N/A,,Overcast,320,2013-03-20 22:55:00
6:15 PM,23.0,8.6,54,29.93,9.0,NNW,12.7,-,N/A,,Overcast,340,2013-03-20 23:15:00
6:35 PM,21.2,10.4,63,29.94,7.0,NW,8.1,16.1,N/A,,Mostly Cloudy,320,2013-03-20 23:35:00
6:55 PM,21.2,12.2,68,29.95,10.0,NNW,6.9,-,N/A,,Overcast,330,2013-03-20 23:55:00
7:15 PM,21.2,10.4,63,29.95,10.0,NNW,11.5,16.1,N/A,,Overcast,340,2013-03-21 00:15:00
7:35 PM,21.2,10.4,63,29.96,9.0,NNW,5.8,-,N/A,,Overcast,340,2013-03-21 00:35:00
7:55 PM,21.2,10.4,63,29.97,10.0,North,11.5,-,N/A,,Overcast,350,2013-03-21 00:55:00
8:15 PM,21.2,10.4,63,29.97,10.0,NNW,11.5,18.4,N/A,,Overcast,340,2013-03-21 01:15:00
8:35 PM,21.2,10.4,63,29.98,9.0,NNW,9.2,18.4,N/A,,Mostly Cloudy,330,2013-03-21 01:35:00
8:55 PM,21.2,8.6,58,29.98,10.0,NNW,9.2,18.4,N/A,,Overcast,340,2013-03-21 01:55:00
9:15 PM,21.2,8.6,58,29.98,10.0,North,12.7,-,N/A,,Overcast,350,2013-03-21 02:15:00
9:35 PM,19.4,10.4,68,29.99,10.0,North,12.7,18.4,N/A,,Mostly Cloudy,10,2013-03-21 02:35:00
9:55 PM,19.4,8.6,63,29.98,10.0,NNW,10.4,-,N/A,,Overcast,340,2013-03-21 02:55:00
10:15 PM,19.4,10.4,68,29.97,10.0,NW,6.9,-,N/A,,Overcast,310,2013-03-21 03:15:00
10:35 PM,19.4,10.4,68,29.97,10.0,WNW,6.9,-,N/A,,Overcast,300,2013-03-21 03:35:00
10:55 PM,19.4,10.4,68,29.97,10.0,WNW,5.8,-,N/A,,Overcast,300,2013-03-21 03:55:00
11:15 PM,19.4,8.6,63,29.97,10.0,NW,6.9,-,N/A,,Overcast,310,2013-03-21 04:15:00
11:35 PM,19.4,8.6,63,29.96,10.0,WNW,6.9,-,N/A,,Overcast,300,2013-03-21 04:35:00
11:55 PM,19.4,6.8,58,29.97,10.0,NW,5.8,-,N/A,,Overcast,310,2013-03-21 04:55:00